Regional Weather Roundup
Issued by NWS

Home | Current Version | Previous Version | Text Only | Print | Product List | Glossary On
Versions: 1 2 3 4 5 6 7 8 9 10 11 12 13 14 15 16 17 18 19 20 21 22 23 24 25 26 27 28 29 30 31 32 33 34 35 36 37 38 39 40 41 42 43 44 45 46 47 48 49 50
000
ASCA44 KEWX 270712
RWRMX

LATIN AMERICA AND CARIBBEAN REGIONAL WEATHER ROUNDUP
NATIONAL WEATHER SERVICE AUSTIN/SAN ANTONIO TX
200 AM CDT MON MAR 27 2017

NOTE: "FAIR" INDICATED FEW OR NO CLOUDS BELOW 12,000 FEET WITH NO
SIGNIFICANT WEATHER AND/OR OBSTRUCTIONS TO VISIBILITY.

BAJA CALIFORNIA

CITY           SKY/WX    TMP DP  RH WIND       PRES   REMARKS
MEXICALI       CLEAR     66  41  39 NW8       29.88F
S.J. DEL CABO    N/A    N/A N/A N/A MISG        N/A
TIJUANA        CLOUDY    57  50  77 CALM      30.08S

NORTHWESTERN MEXICO

CITY           SKY/WX    TMP DP  RH WIND       PRES   REMARKS
HERMOSILLO     CLEAR     64  45  48 CALM      29.96F

NORTHEASTERN MEXICO

CITY           SKY/WX    TMP DP  RH WIND       PRES   REMARKS
CHIHUAHUA      CLEAR     61  23  23 W6        30.04
MONCLOVA         N/A    N/A N/A N/A MISG        N/A
MONTERREY      CLEAR     70  64  83 SE5       29.78S
REYNOSA          N/A    N/A N/A N/A MISG        N/A
CD. VICTORIA     N/A    N/A N/A N/A MISG        N/A

WESTERN MEXICO

CITY           SKY/WX    TMP DP  RH WIND       PRES   REMARKS
AGUASCALIENTES   N/A    N/A N/A N/A MISG        N/A
COLIMA           N/A    N/A N/A N/A MISG        N/A
GUADALAJARA    CLEAR     61  43  51 CALM      30.16F
MAZATLAN       CLEAR     61  59  94 CALM      29.97S
P. VALLARTA    CLEAR     68  68 100 CALM      29.92F
URUAPAN          N/A    N/A N/A N/A MISG        N/A
ZACATECAS      CLEAR     66  18  15 S9        30.21S

CENTRAL MEXICO

CITY           SKY/WX    TMP DP  RH WIND       PRES   REMARKS
CUERNAVACA       N/A    N/A N/A N/A MISG        N/A
MEXICO CITY    PTCLDY    59  45  58 SE3       30.32F
MORELIA        PTCLDY    52  46  82 CALM      30.21F
POZA RICA        N/A    N/A N/A N/A MISG        N/A
QUERETARO      PTCLDY    52  50  93 N5        30.26F
S. LUIS POTOSI CLEAR     64  36  34 S9        30.14F
TOLUCA         PTCLDY    50  41  71 CALM      30.39F

SOUTHERN MEXICO

CITY           SKY/WX    TMP DP  RH WIND       PRES   REMARKS
ACAPULCO       PTCLDY    79  73  83 W5        29.88F
B. DE HUATULCO   N/A    N/A N/A N/A MISG        N/A
P. ESCONDIDO     N/A    N/A N/A N/A MISG        N/A
VERACRUZ         N/A    N/A N/A N/A MISG        N/A

YUCATAN PENINSULA

CITY           SKY/WX    TMP DP  RH WIND       PRES   REMARKS
CAMPECHE         N/A    N/A N/A N/A MISG        N/A
CANCUN         PTCLDY    75  70  83 E6        29.97F
CHETUMAL         N/A    N/A N/A N/A MISG        N/A
CD. DEL CARMEN   N/A    N/A N/A N/A MISG        N/A
COZUMEL          N/A    N/A N/A N/A MISG        N/A
MERIDA         CLEAR     75  64  69 SE10      29.93F
MINATITLAN       N/A    N/A N/A N/A MISG        N/A
TAPACHULA      MOCLDY    77  72  83 CALM      29.88F
VILLAHERMOSA   CLEAR     73  70  88 NE10      29.87F

CENTRAL AMERICA

CITY           SKY/WX    TMP DP  RH WIND       PRES   REMARKS

CARIBBEAN

CITY           SKY/WX    TMP DP  RH WIND       PRES   REMARKS
ARUBA          PTCLDY    79  73  83 E7        29.83
KINGSTON       PTCLDY    77  70  78 E6        29.89F
NASSAU         PTCLDY    72  66  83 NE10      30.02F
SAN JUAN       CLEAR     75  73  94 CALM      29.88F
SANTO DOMINGO  MOCLDY    73  72  94 NE5       29.89S
ST. CROIX      PTCLDY    77  72  83 SE3       29.92
ST. MAARTEN    PTCLDY    79  75  89 SE8       29.92S
ST. THOMAS     CLEAR     77  75  94 SE9       29.90

$$




USA.gov is the U.S. government's official web portal to all federal, state and local government web resources and services.